Skip Page Navigation
NASA JPL Caltech
NASA Logo - Jet Propulsion Laboratory + View the NASA Portal
+ Center for Near-Earth Object Studies
JPL Home Earth Solar System Stars & Galaxies Technology
JPL Solar System Dynamics
BODIES ORBITS EPHEMERIDES TOOLS PHYSICAL DATA DISCOVERY FAQ SITE MAP
JPL Small-Body Database Browser
Search: [ help ]  
100135 (1993 RR16)
Classification: Main-belt Asteroid          SPK-ID: 2100135
Ephemeris | Orbit Diagram | Orbital Elements | Mission Design | Physical Parameters | Discovery Circumstances ]

[ show orbit diagram ]
Orbital Elements at Epoch 2459200.5 (2020-Dec-17.0) TDB
Reference: JPL 11 (heliocentric ecliptic J2000)
 Element Value Uncertainty (1-sigma)   Units 
e .1870201803303633 6.4815e-08  
a 2.563191147845178 1.893e-08 au
q 2.083822677153982 1.6073e-07 au
i 1.098587897256321 6.3008e-06 deg
node 319.1743350148366 0.00033136 deg
peri 23.32915621759468 0.00033205 deg
M 239.845316933459 2.6857e-05 deg
tp 2459700.774216126756
(2022-May-01.27421613)
0.00011514 TDB
period 1498.890540170579
4.10
1.6604e-05
4.546e-08
d
yr
n .2401776449660099 2.6606e-09 deg/d
Q 3.042559618536373 2.247e-08 au
  Orbit Determination Parameters
   # obs. used (total)      222  
   data-arc span      9688 days (26.52 yr)  
   first obs. used      1993-09-15  
   last obs. used      2020-03-25  
   planetary ephem.      DE431  
   SB-pert. ephem.      SB431-N16  
   condition code      0  
   norm. resid. RMS      .61838  
   source      ORB  
   producer      Otto Matic  
   solution date      2020-Nov-12 20:07:50  

Additional Information
 Earth MOID = 1.074 au 
 Jupiter MOID = 2.36046 au 
 T_jup = 3.409 
[ show covariance matrix ]

Ephemeris | Orbit Diagram | Orbital Elements | Mission Design | Physical Parameters | Discovery Circumstances ]

Physical Parameter Table
Parameter Symbol Value Units Sigma Reference Notes
absolute magnitude H 16.80   n/a E2021B55  

100135 (1993 RR16)          Discovered 1993-Sep-15 by Debehogne, H., Elst, E. W. at La Silla
Reference: 20051019/Numbers.arcLast Updated: 2005-10-26

Alternate Designations
 1993 RR16 = 1997 RV5 
Ephemeris | Orbit Diagram | Orbital Elements | Mission Design | Physical Parameters | Discovery Circumstances ]
ABOUT SSD CREDITS/AWARDS PRIVACY/COPYRIGHT GLOSSARY LINKS
FirstGov 2021-Mar-09 05:33 UT
(server date/time)  
NASA Home Page
Site Manager:   Ryan S. Park
Webmaster  Alan B. Chamberlin